Find Starlink 3826

NORAD ID: 52347 Int'l Des: 2022-045 Owner: SPXS Country: US Constellation: starlink operational
LEOCIRCULAR

現在のビュー

3D地球を読み込み中...

About Starlink 3826

Starlink 3826 (NORAD 52347) is a starlink constellation satellite (v1.5) launched Apr 29, 2022 by SPXS of US. It operates in LEO, CIRCULAR orbit with a mass of 297.00 kg.

次回通過

Passes for default location (London). Set your location on the main map for personalized predictions.

高度履歴

Loading altitude history...

軌道要素

1 52347U 22045S 26262.35883060 .00000334 00000-0 21477-4 0 9990
2 52347 53.1626 35.2424 0001395 93.8005 266.3157 15.33545559245218
Epoch: Sep 19, 2026 • Age: 16 hours

現在のステータス

高度 468.0 km
遠地点 / 近地点 N/A
速度 7.63 km/s
衛星直下点 -9.01°S, 23.45°E
打ち上げ日 Apr 29, 2022
運用期間 4.3 years
タイプ internet

技術仕様

分類 Payload
質量 297.00 kg
乾燥質量 275.00 kg
長さ 0.20 m
スパン 9.00 m
形状 ? Box + pan
製造者 SPXS
バスタイプ Starlink
フェーズステータス In Orbit
所有者/国 SPXS/US

Most Searched